Location: Dvur Kralove nad Labem
(50.4330°N, 15.8170°E)
Time: 22:36:11
(UTC+02:00)

ISS - Pass Details

Date: 21 May 2022
Orbit: 414 x 420 km, 51.6° (Epoch: 30 June)

Event Time Altitude Azimuth Distance (km) Brightness Sun altitude
Rises 21:30:20 0° 265° (W) 2,369 0.8 -6.3°
Reaches altitude 10° 21:32:26 10° 268° (W) 1,503 -0.2 -6.6°
Maximum altitude 21:35:48 73° 353° (N) 443 -3.5 -7.0°
Drops below altitude 10° 21:39:10 10° 79° (E) 1,499 -1.3 -7.3°
Enters shadow 21:41:36 -1° 82° (E) 2,497 -0.2 -7.6°
